Temperature
22 23 23 23 20 20 23 24 25 26 26 26 26 24 23 22 22 21 20 20 19 19 19 19 19 19 19 19 19 19 19 19 18 19 19 19 19 19 19 19 19 18 18 18 18 18 18 18 18
23 23 23 23 20 21 23 25 25 26 26 25 25 24 22 21 21 21 20 19 19 19 19 19 19 19 19 19 19 19 18 18 18 18 18 19 19 19 19 19 18 18 18 18 18 18 18 18 18
23 23 23 20 21 22 24 25 25 27 27 26 25 24 23 21 21 20 20 19 19 19 19 19 19 19 19 19 19 19 18 18 18 18 18 19 19 19 19 18 18 18 18 18 18 18 18 18 17
23 23 22 21 24 24 25 25 26 27 27 26 25 23 22 21 21 20 20 19 19 19 19 19 19 19 19 19 18 18 18 18 18 18 18 19 19 19 18 18 18 18 18 18 18 18 18 18 17
23 23 20 21 24 25 25 26 27 26 26 25 24 22 21 21 21 20 20 20 19 19 19 19 19 19 19 19 18 18 18 18 18 18 18 18 18 18 18 18 18 18 18 18 18 18 18 17 17
23 20 20 21 23 25 25 27 27 26 26 25 23 21 21 21 21 20 20 20 19 19 19 19 19 19 19 19 18 18 18 18 18 18 18 18 18 18 18 18 18 18 18 19 19 19 18 17 16
23 19 21 21 23 25 26 28 27 26 26 25 24 21 20 20 20 20 20 20 20 19 19 19 19 19 19 18 18 18 18 18 18 18 18 18 18 18 18 18 17 18 18 18 18 18 17 17 16
24 19 21 22 24 25 26 28 28 27 27 26 25 21 20 21 21 20 20 20 20 19 19 19 19 19 19 19 18 18 18 18 18 18 18 18 18 18 18 17 17 18 18 18 18 17 17 17 17
24 20 21 24 25 25 26 26 28 27 27 27 25 25 24 22 21 20 20 20 20 19 19 19 19 19 19 19 18 18 18 18 18 18 18 18 18 18 18 17 17 18 18 17 17 17 17 17 16
23 21 24 25 25 26 27 27 27 27 26 25 25 24 23 22 21 21 21 20 20 20 19 19 19 19 19 19 18 18 18 18 18 18 18 18 18 18 17 17 17 17 17 17 17 17 17 16 16
22 22 24 25 27 27 27 27 27 26 25 25 24 24 22 22 21 21 21 21 21 20 20 19 19 19 19 19 19 18 18 18 18 18 18 18 17 17 17 17 17 17 17 17 17 17 16 16 16
22 23 25 26 28 28 27 27 27 27 27 27 26 25 23 22 22 22 22 22 21 21 20 20 19 19 19 19 18 18 18 18 18 18 18 18 18 17 17 17 17 17 17 17 17 16 16 16 16
22 24 25 27 28 28 27 26 26 27 27 27 26 24 23 23 23 22 23 22 22 21 21 20 20 19 19 19 18 18 18 18 18 18 18 18 18 17 17 17 17 17 17 17 17 16 16 16 16
24 24 26 27 27 27 27 26 26 27 27 27 26 25 24 24 23 23 22 22 22 21 21 20 20 20 19 19 19 18 18 18 17 17 17 18 18 17 17 17 17 17 17 17 17 16 16 16 16
24 24 25 25 26 27 27 26 26 28 27 27 27 26 26 25 24 23 23 23 22 21 21 21 20 20 19 19 19 18 18 18 17 17 17 17 17 17 17 17 17 17 17 17 16 16 16 17 16
24 24 23 24 25 26 26 25 25 28 27 27 27 27 26 25 24 24 24 23 22 21 21 20 20 20 19 19 18 18 18 18 18 17 17 17 17 18 17 17 17 17 17 17 17 17 17 16 16
22 22 23 24 25 25 24 24 24 28 27 27 26 26 25 24 24 24 24 23 22 22 21 20 20 20 19 19 18 18 18 18 18 17 17 18 18 18 18 18 18 18 17 17 17 17 17 16 16
22 22 23 23 25 25 23 23 23 26 27 26 25 25 24 24 23 23 23 23 22 22 21 20 20 20 19 19 18 18 17 18 18 18 18 18 18 18 18 18 18 18 18 17 17 17 17 16 16
22 22 22 23 25 24 23 22 23 25 25 24 23 23 24 23 23 23 23 22 22 21 21 20 20 20 19 19 18 18 17 17 18 18 18 18 18 18 18 18 18 18 18 18 17 17 17 16 16
23 22 22 23 24 24 23 23 23 23 23 23 22 23 23 23 22 22 22 21 21 21 20 20 19 19 19 19 19 18 17 17 18 18 17 17 17 18 18 18 18 18 18 17 17 17 17 16 16
23 22 22 22 23 23 22 21 21 22 23 22 22 23 23 23 22 22 21 21 20 20 19 19 19 19 18 18 18 18 17 17 17 17 17 17 17 17 18 18 18 18 18 18 17 17 17 16 16
22 23 23 23 22 20 22 19 20 22 22 21 21 22 23 23 23 22 21 21 20 19 19 19 18 18 18 18 17 17 17 17 17 17 17 17 17 17 17 17 17 17 17 17 17 17 17 17 16
22 23 24 24 22 20 20 20 19 20 20 20 20 22 23 23 23 22 22 21 20 19 18 18 17 17 17 17 17 16 16 17 17 17 17 17 16 17 17 17 17 17 17 17 17 17 17 17 17
24 23 22 19 18 19 20 19 19 19 20 20 21 22 23 23 22 22 21 20 20 19 18 18 17 17 17 16 16 16 16 16 17 17 16 16 16 16 17 17 17 17 17 17 17 17 17 17 17
23 19 18 19 17 18 20 20 19 21 21 21 21 22 23 22 22 22 22 21 20 19 19 18 17 17 17 16 16 16 16 16 16 16 16 16 16 16 16 17 17 17 17 17 17 17 17 17 17
21 19 18 18 18 18 21 21 20 22 22 23 23 23 23 22 22 22 22 21 21 20 19 18 18 17 16 16 16 16 16 16 16 16 16 16 16 16 16 16 17 17 17 17 17 17 17 16 16
21 19 19 18 19 19 19 21 21 22 21 21 22 23 23 23 23 22 22 21 21 20 19 18 18 17 17 16 16 16 16 16 16 16 16 16 16 16 15 16 16 16 16 16 16 17 17 16 16
22 21 18 18 18 18 19 20 19 21 21 21 21 22 23 23 23 22 22 21 21 20 19 18 17 17 17 16 16 16 16 16 16 16 16 16 16 16 16 16 16 16 16 16 16 16 16 16 16
22 21 20 18 17 17 17 18 19 20 20 20 21 23 23 23 23 23 22 21 20 19 19 18 17 17 16 16 16 15 15 15 16 16 16 16 16 16 16 16 16 16 16 16 16 16 16 16 16
21 20 18 17 17 16 16 17 20 20 21 21 22 23 24 24 23 23 22 21 20 19 19 18 17 17 16 16 16 15 15 15 15 16 16 16 16 16 16 16 16 16 16 16 16 16 16 16 16
Wind_Speed
5 3 2 2 5 5 2 2 4 3 3 4 8 11 9 5 3 4 3 10 13 11 11 12 12 12 11 11 11 11 12 13 13 13 13 12 12 13 13 14 15 15 15 14 13 12 11 11 12
1 1 3 4 5 3 1 4 6 5 7 11 10 8 7 4 3 7 6 13 14 12 11 11 12 12 11 11 12 13 13 14 14 14 13 13 13 13 14 14 15 15 14 13 12 11 10 10 11
1 1 3 4 3 6 4 4 5 3 6 7 6 5 6 7 7 6 9 15 13 10 11 12 13 12 12 12 13 14 15 15 15 14 13 13 13 13 13 14 14 14 13 12 10 9 9 10 11
1 4 4 4 2 3 3 2 3 4 4 5 7 6 5 5 7 8 13 15 13 11 11 12 13 13 13 13 14 16 16 16 16 15 14 13 13 13 13 13 14 14 12 11 9 8 8 9 10
3 5 6 4 3 1 1 2 4 4 4 5 7 6 4 3 11 14 13 14 13 10 9 12 13 14 14 14 16 16 16 16 16 15 14 13 13 13 13 13 13 12 11 10 9 8 8 9 10
4 5 4 3 5 3 4 4 5 6 6 8 8 6 3 7 12 13 13 13 12 12 9 11 14 15 15 16 17 17 17 16 16 15 14 14 13 13 13 13 12 11 9 9 8 8 8 9 11
5 5 4 3 3 3 3 4 5 4 5 8 10 7 6 8 10 12 13 13 12 10 9 8 11 14 15 16 17 17 17 17 17 16 15 14 13 13 13 13 11 10 8 7 7 8 8 9 12
5 5 3 3 2 3 6 3 2 3 4 7 8 10 8 11 12 13 12 11 11 9 9 7 8 11 12 14 17 17 17 17 17 16 16 15 14 13 13 12 11 10 8 6 6 5 6 8 13
5 5 3 3 3 1 4 6 8 3 5 4 6 7 11 18 15 13 9 8 10 11 9 9 7 9 11 12 15 16 17 18 17 16 16 15 12 12 12 12 12 10 8 6 4 3 5 9 12
4 3 3 2 6 2 3 4 4 3 4 4 7 8 17 19 17 16 14 13 13 13 12 10 10 9 10 11 11 11 12 14 14 13 14 12 12 11 12 13 12 11 9 6 4 1 5 8 9
2 3 2 3 5 3 1 3 3 3 2 7 12 15 20 18 17 18 18 17 17 17 15 14 13 10 9 6 9 8 9 11 12 13 13 12 10 9 9 9 10 9 8 4 2 1 4 6 7
1 5 4 5 3 2 1 2 3 1 4 7 17 22 23 21 21 19 19 18 17 18 18 17 16 13 10 8 7 7 6 7 7 12 14 10 6 5 6 5 6 6 5 3 0 1 3 2 7
3 4 6 7 5 3 3 1 1 4 3 5 13 17 19 20 19 17 17 16 16 19 19 19 18 16 12 10 7 7 6 7 9 11 13 12 6 6 4 4 5 5 4 3 2 1 1 4 7
3 4 5 5 5 4 3 2 1 5 3 5 11 13 14 16 17 14 14 15 16 19 19 17 20 17 14 11 10 9 8 10 11 11 14 15 11 6 4 4 4 4 4 5 4 3 3 3 5
3 4 7 6 5 6 3 2 1 6 4 5 7 9 12 14 14 14 16 15 15 16 16 16 18 17 15 12 11 8 9 10 8 11 15 15 13 10 7 6 5 6 8 9 6 4 4 4 5
2 2 4 7 3 5 6 5 9 6 5 6 8 6 4 5 6 6 10 12 12 12 13 13 15 13 13 10 8 6 7 7 7 11 13 14 15 14 9 7 6 9 11 8 5 4 3 4 5
3 1 5 7 1 3 5 7 10 8 5 5 5 2 5 7 6 4 3 9 12 14 14 12 9 12 11 9 6 5 4 6 7 9 9 10 12 13 9 7 7 12 8 6 7 4 4 4 5
2 3 4 5 4 2 2 8 11 9 6 3 4 7 8 8 6 5 6 5 8 11 12 12 10 11 11 8 5 3 4 6 5 5 7 9 9 11 9 7 8 10 8 7 6 6 4 4 5
3 4 6 6 5 4 6 8 10 8 4 4 9 9 9 7 5 7 7 7 7 8 10 11 11 10 11 8 7 5 5 5 5 5 7 8 9 10 8 8 9 9 9 9 9 5 6 4 4
5 6 7 7 7 5 6 8 8 6 5 9 13 10 9 7 5 6 7 7 7 7 8 8 9 10 10 8 6 4 4 3 3 2 3 6 8 9 8 8 8 9 9 9 8 6 5 3 4
6 6 7 7 6 8 6 8 8 6 3 7 10 9 9 10 9 7 7 7 8 8 9 9 9 9 8 7 4 4 2 1 1 1 2 3 6 8 9 9 9 8 9 10 10 8 7 6 4
9 9 8 6 3 5 3 6 10 4 5 7 8 8 9 8 8 8 8 8 8 8 8 8 8 8 7 7 6 7 6 5 3 2 2 3 4 5 7 8 8 8 7 9 11 9 5 8 7
10 9 6 4 2 4 4 3 9 0 6 8 8 8 8 8 8 8 9 9 9 9 9 9 8 8 7 6 6 6 4 3 3 3 5 4 3 3 5 6 6 7 6 7 9 8 7 6 7
4 2 5 5 4 4 7 6 8 5 9 8 7 8 8 8 7 7 7 8 8 9 9 9 9 8 8 7 7 7 7 6 5 5 6 4 3 1 2 4 6 7 6 7 8 9 10 9 7
3 6 4 4 2 6 6 5 8 7 8 9 9 9 9 8 8 8 9 9 9 10 10 10 10 8 8 8 7 7 8 7 7 6 6 5 3 1 2 3 4 5 6 7 8 8 9 10 9
7 10 7 6 5 5 5 5 6 1 7 9 9 9 9 9 9 10 11 11 10 11 10 10 10 8 8 8 7 7 7 5 5 6 6 5 4 2 2 3 3 4 6 8 8 7 8 9 9
7 7 9 6 3 3 5 3 5 2 4 7 8 9 9 10 10 10 10 10 10 10 10 11 10 8 8 8 7 6 7 6 6 6 5 4 3 2 2 4 5 6 7 8 8 7 8 7 8
8 8 6 5 4 4 5 3 5 8 9 8 9 10 10 9 9 9 8 9 9 9 9 9 9 9 8 8 7 7 7 7 7 6 6 4 2 0 2 3 5 6 7 7 7 6 6 7 6
2 3 4 5 5 6 4 7 7 10 10 10 11 11 11 11 10 9 8 9 9 8 8 8 8 7 7 8 7 8 8 8 7 6 7 5 4 2 3 6 6 6 7 7 7 8 7 8 7
3 4 5 5 6 6 5 8 8 8 8 8 8 9 10 11 10 10 10 9 9 9 8 8 7 7 7 8 8 8 8 8 8 8 7 7 6 4 4 5 6 6 6 7 7 8 8 8 9
Wind_Direction
267 298 79 29 51 50 98 179 145 97 51 63 95 96 93 94 127 167 178 143 140 148 158 155 153 149 149 148 146 144 144 142 139 134 128 122 119 117 113 110 110 110 107 105 101 96 90 85 77
327 309 83 47 77 85 255 192 157 157 134 117 103 104 98 90 105 122 123 137 141 146 151 155 155 151 150 149 146 143 142 141 139 136 131 126 122 118 114 113 114 112 109 108 102 98 94 86 76
274 39 83 69 132 162 208 226 177 158 123 120 104 84 106 135 128 140 146 142 138 142 150 157 156 152 150 148 144 141 141 141 140 138 134 129 124 119 116 116 118 117 113 110 104 97 92 86 76
49 48 55 72 138 184 193 247 165 119 91 90 105 75 72 134 150 145 141 134 133 140 149 157 156 154 151 147 144 142 143 144 143 141 138 133 127 122 118 118 122 122 119 116 109 100 92 85 75
76 70 50 26 333 350 50 104 100 103 116 114 104 88 57 82 126 135 138 135 137 139 144 153 155 154 152 149 146 146 147 147 145 143 139 135 131 127 123 122 124 126 122 117 112 103 93 84 69
62 64 61 337 302 316 40 82 85 89 111 119 109 107 121 139 137 143 141 141 143 145 146 150 153 153 153 152 149 148 149 151 148 145 143 140 137 132 129 128 130 130 122 116 114 107 102 88 70
103 103 158 225 265 22 50 108 113 133 140 150 132 113 139 166 157 149 149 146 146 147 145 143 153 154 155 154 152 150 153 155 152 150 148 144 141 138 137 137 139 136 127 119 119 116 109 89 81
126 117 169 228 172 12 328 19 27 164 164 146 128 141 167 187 162 153 153 148 146 145 148 145 150 151 153 157 157 156 158 159 157 156 154 151 148 146 146 147 148 146 139 130 131 127 101 77 83
105 97 180 210 151 294 339 22 351 1 108 108 137 159 165 165 156 153 152 146 152 156 156 155 155 156 155 158 163 162 162 163 163 163 163 156 151 152 153 157 156 155 154 152 157 137 73 58 73
91 133 220 178 161 167 24 18 337 39 99 94 90 106 143 161 163 165 168 167 167 171 172 168 166 166 163 167 161 164 163 165 166 169 166 160 161 162 162 170 165 165 168 172 182 120 37 38 69
117 194 224 176 170 140 38 317 339 129 206 173 157 152 160 170 174 178 179 178 178 177 177 176 172 172 173 164 161 165 164 167 172 174 171 169 172 176 170 173 173 173 176 183 216 346 14 23 72
143 254 229 208 180 123 235 265 346 241 232 190 170 165 171 179 184 186 187 184 178 177 181 179 177 176 179 167 169 168 168 176 182 185 181 176 176 182 173 178 176 174 175 174 77 1 339 8 101
203 256 256 234 212 176 190 198 305 280 261 147 164 171 179 186 191 194 192 186 176 178 182 180 177 178 178 169 174 176 179 188 194 194 193 190 178 177 174 180 178 181 166 135 105 37 120 127 115
223 258 280 248 222 198 202 303 53 261 246 150 159 179 192 195 195 195 195 190 181 179 181 179 177 178 177 176 181 183 187 192 199 201 200 197 186 176 170 172 175 180 171 133 122 129 126 117 103
226 268 299 291 232 203 154 353 261 235 222 210 184 184 188 197 195 198 198 193 184 177 174 177 178 177 177 180 186 186 191 190 195 200 201 197 186 183 174 168 170 179 170 139 127 119 99 93 92
304 349 303 292 226 189 150 229 258 237 191 232 232 214 156 153 163 193 196 187 174 161 159 169 178 175 174 176 192 195 197 190 190 193 195 191 183 180 162 156 159 161 156 148 144 133 103 93 98
30 346 279 299 231 165 163 227 260 257 216 248 242 193 111 95 73 53 149 167 165 159 154 153 160 165 166 164 174 204 209 202 195 190 192 190 181 175 158 146 146 147 144 150 155 140 131 122 116
267 270 275 292 300 14 286 260 269 270 241 224 131 120 112 92 71 63 73 118 148 157 154 150 149 154 153 148 152 187 218 221 208 193 190 185 182 174 149 135 141 143 144 155 155 148 132 133 138
263 275 279 277 295 337 304 281 271 269 259 146 135 135 121 111 92 70 73 93 111 135 146 153 154 155 155 157 164 176 204 220 219 207 189 179 175 169 150 140 142 148 156 167 159 144 138 138 133
287 286 283 292 310 332 292 282 278 281 244 168 154 150 142 134 111 90 84 90 111 135 145 150 156 160 166 168 164 167 179 208 214 198 169 169 171 168 159 138 143 155 157 163 166 147 139 157 155
293 253 253 265 317 345 329 315 317 330 68 137 155 159 159 158 152 139 119 109 118 136 153 163 166 167 172 164 149 140 144 189 181 146 134 164 168 160 146 136 140 155 163 174 179 167 154 160 175
269 253 248 259 339 305 343 304 295 244 189 172 177 170 168 162 155 150 142 138 141 146 149 153 166 171 176 172 171 170 179 181 184 143 126 143 148 154 150 141 142 153 172 180 186 178 169 160 172
244 245 244 247 255 299 299 266 286 135 188 195 192 185 180 181 177 170 164 160 159 156 155 158 163 174 178 176 176 179 177 167 138 104 104 120 137 154 154 147 154 163 175 189 194 180 180 172 176
216 68 16 41 76 289 249 199 272 230 197 186 199 202 197 198 195 187 170 159 160 161 161 162 166 177 180 178 176 179 171 157 137 114 114 120 135 165 183 175 174 176 175 189 203 191 188 190 187
115 90 18 339 11 249 255 203 246 235 186 174 184 198 203 197 192 190 180 179 174 170 168 167 170 179 182 179 178 177 172 163 153 138 121 119 124 144 226 208 192 185 186 189 191 189 190 191 192
181 149 169 211 219 264 301 252 268 205 164 167 171 179 184 188 191 194 193 188 181 176 169 165 172 177 178 176 176 173 166 160 156 149 136 136 143 173 229 248 227 208 197 198 193 189 190 190 195
153 178 182 159 231 255 280 319 350 354 170 178 186 186 190 196 197 196 193 186 180 176 174 172 173 176 178 172 164 162 159 154 150 145 131 127 126 149 208 236 237 228 215 210 199 201 200 191 196
152 157 114 142 198 236 269 250 217 223 222 217 211 210 212 214 208 196 184 180 178 176 174 171 172 179 179 170 165 160 160 155 150 142 135 130 122 337 291 260 237 235 225 216 207 211 208 193 198
194 181 157 163 180 173 224 262 229 208 215 221 227 225 218 212 207 194 181 173 168 164 166 173 179 181 181 174 167 160 162 160 154 151 155 159 159 191 257 261 248 239 227 214 206 210 203 196 196
233 217 167 186 232 191 186 256 257 220 214 215 234 236 224 210 200 185 173 165 164 169 172 176 179 181 184 175 168 170 167 166 166 166 168 168 175 190 222 246 248 243 231 210 201 205 199 193 194
Height
1505 1504 1503 1503 1505 1516 1516 1507 1500 1497 1496 1496 1496 1497 1501 1506 1509 1515 1511 1511 1513 1514 1515 1516 1517 1517 1518 1518 1519 1520 1520 1521 1522 1523 1525 1525 1526 1526 1526 1527 1527 1527 1528 1528 1529 1530 1530 1530 1530
1505 1504 1504 1504 1514 1528 1518 1503 1499 1495 1495 1497 1498 1499 1502 1505 1506 1508 1509 1511 1513 1514 1515 1515 1516 1517 1517 1518 1519 1520 1521 1522 1523 1524 1525 1526 1526 1527 1527 1527 1528 1528 1529 1529 1530 1531 1531 1531 1531
1504 1503 1505 1507 1516 1522 1512 1500 1496 1494 1494 1495 1498 1501 1503 1505 1507 1508 1509 1511 1513 1514 1515 1515 1516 1517 1517 1518 1519 1520 1521 1522 1523 1524 1526 1526 1527 1527 1528 1528 1528 1529 1530 1531 1531 1532 1532 1532 1532
1503 1504 1504 1511 1512 1505 1500 1496 1494 1494 1495 1496 1498 1502 1505 1507 1507 1508 1509 1511 1513 1514 1514 1515 1516 1517 1518 1518 1519 1520 1522 1523 1524 1525 1526 1527 1527 1528 1528 1529 1530 1530 1531 1532 1532 1533 1533 1534 1534
1502 1503 1509 1516 1510 1501 1496 1494 1493 1494 1495 1497 1498 1503 1507 1508 1508 1508 1510 1511 1513 1514 1514 1515 1517 1517 1518 1519 1520 1521 1522 1523 1525 1526 1527 1528 1528 1529 1529 1530 1531 1532 1533 1533 1533 1534 1535 1535 1535
1503 1505 1519 1523 1512 1501 1496 1494 1494 1495 1496 1498 1499 1504 1508 1509 1509 1509 1511 1512 1513 1514 1515 1516 1517 1518 1518 1519 1520 1521 1523 1524 1525 1526 1528 1529 1529 1530 1531 1531 1533 1534 1534 1534 1535 1535 1536 1537 1536
1504 1510 1518 1519 1513 1503 1497 1494 1494 1494 1495 1497 1498 1503 1507 1509 1510 1510 1511 1513 1514 1514 1515 1516 1517 1518 1519 1520 1521 1522 1523 1525 1526 1527 1528 1529 1530 1531 1532 1533 1534 1535 1536 1536 1537 1537 1538 1539 1539
1503 1510 1516 1516 1511 1505 1497 1495 1494 1493 1493 1495 1496 1500 1504 1507 1509 1510 1512 1513 1514 1515 1516 1516 1517 1518 1519 1520 1521 1522 1524 1525 1526 1527 1528 1530 1531 1532 1533 1534 1535 1537 1538 1539 1539 1540 1541 1541 1541
1502 1512 1517 1510 1506 1503 1497 1495 1495 1493 1493 1494 1495 1496 1498 1504 1507 1509 1511 1513 1514 1515 1515 1516 1517 1518 1519 1520 1521 1522 1524 1525 1526 1528 1529 1530 1531 1532 1533 1535 1537 1539 1540 1541 1542 1543 1543 1543 1543
1501 1511 1506 1500 1499 1498 1495 1495 1495 1494 1494 1494 1495 1497 1498 1501 1504 1505 1507 1509 1511 1513 1514 1515 1516 1517 1519 1520 1521 1522 1523 1525 1526 1528 1529 1531 1532 1533 1535 1536 1538 1540 1542 1543 1544 1545 1545 1544 1543
1500 1503 1499 1498 1496 1495 1495 1494 1493 1493 1494 1493 1493 1495 1497 1498 1500 1501 1503 1504 1506 1509 1511 1513 1515 1517 1518 1519 1521 1522 1523 1524 1526 1528 1529 1531 1533 1534 1536 1538 1539 1541 1543 1545 1545 1546 1546 1546 1545
1499 1496 1495 1495 1493 1493 1494 1493 1492 1491 1491 1490 1490 1490 1492 1494 1495 1497 1498 1500 1503 1505 1507 1510 1512 1514 1517 1519 1520 1521 1522 1524 1525 1527 1529 1531 1533 1535 1537 1539 1541 1543 1544 1546 1546 1547 1547 1547 1547
1497 1494 1492 1492 1492 1492 1492 1491 1491 1490 1489 1489 1490 1491 1491 1492 1493 1494 1496 1497 1499 1501 1504 1506 1509 1512 1515 1517 1519 1520 1522 1523 1525 1527 1529 1531 1533 1535 1538 1540 1542 1544 1545 1546 1547 1547 1548 1548 1548
1494 1493 1491 1490 1490 1490 1490 1490 1489 1489 1488 1488 1489 1490 1490 1490 1492 1494 1495 1495 1496 1498 1501 1504 1506 1509 1513 1516 1518 1519 1521 1523 1524 1526 1528 1530 1532 1535 1538 1540 1542 1544 1546 1547 1548 1548 1549 1549 1549
1493 1494 1491 1488 1488 1489 1490 1491 1487 1486 1487 1487 1487 1487 1487 1487 1489 1490 1491 1493 1494 1495 1499 1502 1505 1507 1511 1515 1517 1518 1520 1521 1523 1525 1527 1529 1532 1534 1536 1539 1541 1543 1545 1547 1548 1550 1550 1550 1550
1493 1497 1502 1491 1487 1486 1492 1498 1485 1483 1484 1484 1485 1485 1485 1486 1487 1487 1489 1490 1492 1495 1497 1500 1503 1505 1508 1512 1515 1518 1519 1520 1522 1524 1526 1528 1530 1533 1535 1537 1540 1542 1544 1546 1548 1550 1550 1551 1551
1502 1508 1505 1495 1486 1486 1490 1494 1483 1481 1480 1481 1482 1483 1484 1485 1485 1486 1486 1487 1489 1491 1494 1497 1499 1502 1505 1507 1512 1515 1517 1519 1520 1522 1524 1527 1529 1532 1534 1536 1539 1541 1543 1545 1547 1549 1550 1551 1552
1509 1508 1503 1498 1487 1487 1490 1490 1482 1478 1477 1478 1480 1481 1482 1483 1484 1484 1484 1485 1487 1489 1491 1493 1496 1498 1501 1504 1508 1511 1514 1516 1518 1520 1522 1525 1527 1530 1533 1535 1537 1539 1541 1544 1546 1547 1549 1551 1553
1500 1502 1502 1494 1484 1487 1489 1488 1481 1476 1475 1476 1478 1479 1480 1482 1483 1483 1483 1483 1484 1486 1488 1490 1493 1495 1497 1500 1503 1506 1509 1512 1515 1517 1519 1522 1525 1528 1530 1533 1535 1537 1540 1542 1544 1546 1548 1550 1552
1498 1502 1501 1493 1484 1486 1488 1485 1478 1474 1473 1473 1475 1477 1479 1481 1481 1482 1482 1482 1483 1484 1486 1488 1490 1492 1495 1497 1499 1502 1506 1509 1512 1515 1516 1519 1522 1525 1528 1530 1533 1536 1538 1540 1543 1544 1546 1549 1551
1496 1499 1498 1496 1487 1485 1488 1490 1482 1474 1472 1474 1475 1476 1477 1478 1479 1480 1480 1481 1482 1483 1485 1487 1488 1491 1493 1495 1498 1500 1503 1506 1509 1511 1513 1516 1519 1522 1525 1528 1531 1534 1536 1538 1540 1543 1545 1547 1549
1498 1488 1488 1489 1496 1504 1496 1511 1488 1478 1476 1476 1475 1475 1476 1477 1478 1479 1479 1480 1481 1482 1484 1485 1487 1489 1491 1493 1495 1496 1499 1502 1505 1507 1510 1513 1516 1519 1521 1524 1528 1531 1534 1536 1539 1541 1543 1545 1546
1487 1481 1484 1486 1493 1502 1498 1506 1496 1480 1480 1477 1474 1474 1475 1476 1477 1478 1479 1480 1481 1482 1483 1484 1486 1488 1490 1491 1493 1495 1498 1501 1503 1505 1507 1510 1513 1516 1519 1522 1525 1528 1531 1534 1536 1539 1541 1543 1544
1478 1482 1487 1494 1502 1514 1500 1505 1501 1484 1477 1474 1473 1473 1475 1476 1477 1478 1479 1480 1480 1481 1482 1483 1485 1487 1488 1490 1491 1494 1497 1500 1502 1503 1505 1508 1511 1514 1517 1519 1522 1526 1529 1531 1534 1536 1538 1540 1542
1481 1498 1516 1516 1522 1517 1493 1496 1492 1471 1468 1470 1471 1473 1474 1475 1476 1476 1477 1478 1479 1480 1481 1482 1484 1485 1487 1488 1490 1492 1495 1498 1500 1502 1503 1506 1509 1512 1515 1518 1520 1523 1526 1529 1531 1534 1535 1537 1539
1481 1493 1515 1523 1523 1511 1489 1491 1480 1465 1466 1468 1469 1470 1472 1473 1473 1474 1474 1475 1476 1478 1479 1480 1482 1484 1485 1487 1488 1491 1493 1496 1498 1500 1502 1505 1507 1510 1512 1516 1518 1521 1524 1526 1528 1530 1532 1533 1535
1478 1488 1489 1505 1505 1509 1500 1485 1475 1468 1470 1469 1468 1469 1469 1470 1470 1471 1472 1473 1474 1476 1477 1479 1480 1482 1483 1485 1487 1489 1492 1494 1496 1499 1501 1503 1505 1507 1510 1513 1516 1518 1521 1523 1525 1527 1528 1530 1531
1468 1475 1491 1503 1513 1517 1503 1493 1491 1476 1472 1469 1467 1466 1466 1467 1467 1468 1469 1470 1472 1474 1475 1477 1478 1480 1482 1483 1485 1487 1490 1492 1494 1496 1498 1500 1503 1505 1507 1510 1512 1515 1518 1519 1521 1522 1524 1526 1528
1472 1476 1482 1494 1500 1513 1515 1501 1473 1469 1467 1466 1464 1462 1462 1463 1464 1465 1466 1467 1470 1472 1473 1475 1476 1478 1479 1481 1483 1485 1487 1490 1492 1494 1496 1498 1500 1501 1504 1506 1509 1512 1514 1515 1517 1518 1520 1521 1523
1471 1476 1484 1499 1499 1500 1507 1497 1461 1462 1460 1460 1460 1459 1459 1460 1460 1462 1463 1465 1467 1469 1471 1472 1473 1475 1477 1478 1480 1482 1485 1487 1490 1492 1493 1495 1496 1499 1501 1503 1505 1507 1509 1511 1512 1513 1515 1517 1518